[[{"header":{"parameterUnit":"m.s-1","parameterCategory":1,"la1":30.2992,"la2":30.254,"lo1":-89.0895,"lo2":-89.0443,"dy":0.0025,"dx":0.0025,"nx":19,"ny":19,"refTime":"2026-05-17T09:00:00:Z","depth":0,"parameterNumber":2,"parameterNumberName":"U-component_of_WINDS"},"data":[0,0,0,-3.6647,-3.6648,-3.6679,-3.668,-3.6727,-3.6728,0,0,0,0,0,0,0,0,0,0,0,-3.6642,-3.6643,-3.6647,-3.6648,-3.6679,-3.668,-3.6727,-3.6728,0,0,0,0,0,0,0,0,0,0,0,-3.6642,-3.6643,-3.6643,-3.6648,-3.6679,-3.668,-3.6727,-3.6701,0,0,0,0,0,0,0,0,0,0,-3.6669,-3.6669,-3.6643,-3.6643,-3.6648,-3.6679,-3.668,-3.6699,-3.6702,-3.6716,0,-3.673,0,-3.673,-3.6732,-3.6732,0,0,0,-3.6644,-3.6666,-3.6671,-3.6643,-3.6649,-3.6679,-3.6664,-3.6701,-3.6704,-3.6721,-3.6731,-3.6732,-3.6731,-3.6732,-3.6732,-3.6826,-3.6827,0,0,-3.6643,-3.665,-3.6668,-3.6673,-3.6669,-3.6663,-3.6665,-3.6703,-3.6714,-3.6731,-3.6733,-3.6732,-3.6732,-3.6733,-3.6826,-3.6826,0,0,0,-3.664,-3.6649,-3.6653,-3.6671,-3.6677,-3.6664,-3.6667,-3.6713,-3.6713,-3.6734,-3.6732,-3.6733,-3.6733,-3.6825,-3.6826,-3.6862,0,0,0,-3.6639,-3.6648,-3.6652,-3.6657,-3.6676,-3.6695,-3.6676,-3.6711,-3.6715,-3.6732,-3.6733,-3.6734,-3.6824,-3.6825,-3.686,-3.6877,0,0,0,-3.6639,-3.6647,-3.6654,-3.6657,-3.6671,-3.6694,-3.6697,-3.6711,-3.6714,-3.6732,-3.6734,-3.6824,-3.6825,-3.6858,-3.6874,-3.6904,0,0,0,-3.664,-3.6685,-3.6654,-3.6704,-3.6671,-3.6717,-3.6696,-3.6731,-3.675,-3.6733,-3.6824,-3.6826,-3.6857,-3.6872,-3.6902,-3.6929,-3.6942,0,0,-3.6701,-3.6693,-3.6722,-3.6695,-3.6749,-3.6712,-3.6771,-3.6782,-3.6777,-3.681,-3.6812,-3.6861,-3.6874,-3.6903,-3.7013,-3.7023,0,0,0,-3.6743,-3.6764,-3.6777,-3.6796,-3.6807,-3.6817,-3.6818,-3.6823,-3.6851,-3.6796,-3.688,-3.6888,-3.6905,-3.6918,-3.6926,-3.694,-3.6833,-3.6832,-3.6832,-3.6837,-3.683,-3.6877,-3.6874,-3.6893,-3.6896,-3.6911,-3.6917,-3.6903,-3.6923,-3.6932,-3.7,-3.7015,-3.7021,-3.7036,-3.6948,-3.6948,-3.6948,-3.6948,-3.6924,-3.6951,-3.6934,-3.6973,-3.6965,-3.6998,-3.7003,-3.6992,-3.7021,-3.6992,-3.7007,-3.6974,-3.7033,-3.7045,-3.6951,-3.695,-3.695,-3.695,-3.6949,-3.6983,-3.6995,-3.7001,-3.703,-3.7054,-3.7049,-3.7079,-3.7071,-3.7063,-3.7078,-3.7086,-3.7086,-3.7083,-3.7083,-3.7083,-3.7084,-3.7084,-3.7084,-3.7084,-3.7041,-3.7047,-3.7072,-3.7089,-3.7102,-3.7118,-3.7123,-3.7135,-3.7146,-3.7137,-3.7137,-3.7121,-3.7041,-3.702,-3.7088,-3.7087,-3.7087,-3.7086,-3.7086,-3.7128,-3.7107,-3.7147,-3.716,-3.718,-3.7204,-3.7195,-3.7221,-3.723,-3.7245,-3.7227,-3.7169,-3.716,-3.7153,-3.7135,-3.7229,-3.7229,-3.7229,-3.7229,-3.7176,-3.7172,-3.7211,-3.7232,-3.7253,-3.7249,-3.7295,-3.73,-3.7302,-3.7307,-3.7293,-3.727,-3.7264,-3.7258,-3.7249,-3.7232,-3.7348,-3.7348,-3.7348,-3.7228,-3.7226,-3.7266,-3.7269,-3.7285,-3.7299,-3.7341,-3.7366,-3.7365,-3.7353,-3.7311,-3.7306,-3.7269,-3.7257,-3.7241,-3.7227,-3.7196,0,0]},{"header":{"parameterUnit":"m.s-1","parameterCategory":1,"la1":30.2992,"la2":30.254,"lo1":-89.0895,"lo2":-89.0443,"dy":0.0025,"dx":0.0025,"nx":19,"ny":19,"refTime":"2026-05-17T09:00:00:Z","depth":0,"parameterNumber":3,"parameterNumberName":"V-component_of_WINDS"},"data":[0,0,0,3.6627,3.6627,3.6629,3.6629,3.6641,3.6642,0,0,0,0,0,0,0,0,0,0,0,3.6634,3.6634,3.6627,3.6628,3.6629,3.6629,3.6641,3.6642,0,0,0,0,0,0,0,0,0,0,0,3.6633,3.6634,3.6634,3.6628,3.6629,3.6629,3.6641,3.6636,0,0,0,0,0,0,0,0,0,0,3.6633,3.6645,3.6634,3.6634,3.6628,3.6629,3.6629,3.6636,3.6637,3.6646,0,3.6655,0,3.6649,3.6643,3.6643,0,0,0,3.6622,3.6645,3.6639,3.6634,3.6628,3.6629,3.6627,3.6636,3.6637,3.6647,3.6655,3.6656,3.6649,3.6643,3.6643,3.6714,3.6715,0,0,3.6622,3.6637,3.6639,3.664,3.6641,3.6627,3.6627,3.6637,3.6647,3.6655,3.6656,3.6649,3.6644,3.6644,3.6713,3.6714,0,0,0,3.6626,3.6637,3.6631,3.664,3.664,3.6627,3.6627,3.6646,3.6643,3.6656,3.665,3.6644,3.6644,3.6713,3.6714,3.6758,0,0,0,3.6625,3.6639,3.6632,3.6641,3.664,3.6643,3.6637,3.6643,3.6643,3.6649,3.6644,3.6644,3.6712,3.6713,3.6755,3.6776,0,0,0,3.6631,3.664,3.6642,3.6641,3.6643,3.6643,3.664,3.6642,3.664,3.6643,3.6644,3.6712,3.6713,3.6753,3.6772,3.68,0,0,0,3.6641,3.668,3.6643,3.6684,3.6643,3.667,3.664,3.6658,3.6667,3.6644,3.6712,3.6714,3.6752,3.6769,3.6798,3.6827,3.684,0,0,3.6698,3.6687,3.671,3.6677,3.6715,3.6668,3.6712,3.6705,3.6691,3.6707,3.6709,3.6756,3.6772,3.6799,3.6909,3.6919,0,0,0,3.6733,3.675,3.6757,3.6766,3.6762,3.6761,3.6746,3.6743,3.6757,3.6702,3.6773,3.6782,3.6797,3.681,3.682,3.6833,3.672,3.672,3.672,3.6834,3.6816,3.6853,3.6836,3.6845,3.683,3.6836,3.6831,3.6808,3.6825,3.683,3.6898,3.6914,3.6921,3.6935,3.6843,3.6843,3.6843,3.6843,3.6917,3.6938,3.6909,3.6935,3.6916,3.6937,3.6924,3.6908,3.6925,3.6892,3.6905,3.6872,3.6933,3.6945,3.6846,3.6846,3.6846,3.6845,3.6845,3.6981,3.6989,3.6986,3.6999,3.7011,3.6992,3.7011,3.6992,3.6974,3.6987,3.6991,3.699,3.6988,3.699,3.699,3.699,3.6991,3.6991,3.6991,3.705,3.7046,3.7064,3.7065,3.707,3.7074,3.7061,3.7064,3.7064,3.7049,3.7049,3.7025,3.6943,3.6923,3.6995,3.6994,3.6993,3.6993,3.6993,3.7141,3.7118,3.7147,3.7152,3.7152,3.7167,3.7143,3.7153,3.7153,3.7164,3.7138,3.708,3.7067,3.7059,3.7043,3.7141,3.7141,3.7141,3.7141,3.7197,3.7189,3.7215,3.7224,3.7231,3.7213,3.7247,3.7238,3.7224,3.7224,3.7207,3.7183,3.7177,3.7168,3.7158,3.7142,3.7263,3.7264,3.7264,3.7252,3.7245,3.7277,3.7265,3.7264,3.7265,3.7297,3.7309,3.7288,3.7268,3.7223,3.7218,3.718,3.7168,3.7147,3.7132,3.7103,0,0]}]]